#timestamp,LO_Frequency,Hit,StdDev 
1619006415.2,286046995.5,P
1619006435.1,286046997.3,N
1619006436.0,286046997.3,N
1619006455.8,286046991.8,Y
1619006475.7,286046998.0,P
1619006495.5,286046995.4,P
1619006515.3,286046996.2,P
1619006535.2,286046997.7,N
1619006555.0,286046997.0,Y
1619006555.9,286046997.0,P
1619006575.8,286047002.6,P
1619006595.6,286047001.0,N
1619006615.4,286047000.0,N
1619006635.3,286047002.6,N
1619006655.1,286047007.4,Y
1619006675.9,286047008.1,P
1619006695.7,286047010.8,N
1619006715.5,286047018.6,P
1619006735.4,286047019.3,N
1619006755.2,286047024.3,Y
1619006775.0,286047008.3,P
1619006776.0,286047008.3,P
1619006795.8,286047012.4,P
1619006815.6,286047015.0,Y
1619006835.5,286047005.7,P
1619006855.3,286047001.6,N
1619006875.1,286047002.6,N
1619006895.9,286046998.7,N
1619006915.7,286046992.2,N
1619006935.6,286046990.5,N
1619006955.4,286046992.0,N
1619006975.2,286046993.7,N
1619006995.1,286046991.9,N
1619006996.0,286046991.9,N
1619007015.8,286046990.7,N
1619007035.6,286046992.4,N
1619007055.5,286046995.7,N
1619007075.3,286047002.8,N
1619007095.2,286047004.5,N
1619007115.9,286047007.1,N
1619007135.7,286047005.8,N
1619007155.6,286047005.6,N
1619007175.4,286047004.3,N
1619007195.3,286046998.8,N
1619007215.1,286046992.3,N
1619007216.0,286046992.3,N
1619007235.8,286046991.5,N
1619007255.7,286046988.7,N
1619007275.5,286046988.7,N
1619007295.3,286046993.0,N
1619007315.2,286046992.3,N
1619007335.0,286046993.4,N
1619007335.9,286046993.4,N
1619007355.8,286046995.4,N
1619007375.6,286046996.3,N
1619007395.4,286046999.6,N
1619007415.3,286046999.0,N
1619007435.1,286046996.4,N
1619007455.9,286046989.4,N
1619007475.7,286046986.2,N
1619007495.5,286046985.5,N
1619007515.4,286046988.0,N
1619007535.2,286046991.2,N
1619007555.0,286046992.4,N
1619007555.9,286046992.4,N
1619007575.8,286046994.8,N
1619007595.6,286046992.2,N
1619007615.5,286046990.4,N
1619007635.3,286046987.3,N
1619007655.1,286046990.3,N
1619007675.9,286046994.5,N
1619007695.7,286046993.3,N
1619007715.5,286046998.0,N
1619007735.4,286046991.6,N
1619007755.2,286046990.7,N
1619007775.1,286046988.1,Y
1619007776.0,286046988.1,P
1619007795.8,286046996.5,N
1619007815.6,286046999.6,N
1619007835.5,286046995.1,N
1619007855.3,286046995.3,N
1619007875.2,286046997.4,N
1619007895.9,286046997.0,N
1619007915.7,286046997.4,N
1619007935.6,286046999.9,N
1619007955.4,286047002.6,N
1619007975.3,286047001.1,N
1619007995.1,286046996.5,N
1619007996.0,286046996.5,N
1619008015.8,286046997.3,N
1619008035.7,286046999.0,N
1619008055.5,286046996.8,N
1619008075.3,286046997.6,N
1619008095.2,286046993.7,N
1619008115.0,286046994.6,N
1619008115.9,286046994.6,N
1619008135.8,286046994.6,N
1619008155.6,286046990.7,Y
1619008175.4,286046990.8,P
1619008195.3,286046992.1,N
1619008215.1,286046993.4,N
1619008235.9,286046993.7,N
1619008255.7,286046994.0,Y
1619008275.5,286047000.0,P
1619008295.4,286047002.4,N
1619008315.2,286047002.3,N
1619008335.0,286047002.5,N
1619008336.0,286047002.5,N
1619008355.8,286047002.4,N
1619008375.6,286046999.5,N
1619008395.5,286046993.9,N
1619008415.3,286046991.7,N
1619008435.1,286046990.5,N
1619008455.9,286046992.2,N
1619008475.7,286046994.2,N
1619008495.6,286046992.1,N
1619008515.4,286046994.7,N
1619008535.2,286046996.3,N
1619008555.1,286046994.7,N
1619008556.0,286046994.7,N
1619008575.8,286046993.6,N
1619008595.6,286046998.0,N
1619008615.5,286046997.9,N
1619008635.3,286046999.6,N
1619008655.2,286046999.2,N
1619008675.9,286047000.6,N
1619008695.7,286046998.3,N
1619008715.6,286046996.5,N
1619008735.4,286046999.6,N
1619008755.2,286046994.0,N
1619008775.1,286046995.1,N
1619008776.0,286046995.1,N
1619008795.8,286046993.8,N
1619008815.7,286046995.2,N
1619008835.5,286046996.8,N
1619008855.3,286046993.5,N
1619008875.2,286046992.2,N
1619008895.0,286046996.3,N
1619008895.9,286046996.3,N
1619008915.8,286046995.4,N
1619008935.6,286046994.8,N
1619008955.4,286046992.5,Y
1619008975.3,286046994.6,P
1619008995.1,286046992.1,P
1619009015.8,286046992.8,P
1619009035.7,286046993.7,Y
1619009055.5,286046991.8,P
1619009075.4,286046996.0,P
1619009095.2,286046992.6,P
1619009115.0,286046986.8,Y
1619009115.9,286046986.8,P
1619009135.8,286046993.2,N
1619009155.6,286046992.6,N
1619009175.5,286046992.3,N
1619009195.3,286046993.0,N
1619009215.1,286046989.7,Y
1619009235.9,286046994.1,P
1619009255.7,286046995.4,P
1619009275.6,286046997.3,N
1619009295.4,286046993.8,Y
1619009315.2,286046995.2,P
1619009335.1,286046997.7,P
1619009336.0,286046997.7,N
1619009355.8,286046993.3,Y
1619009375.7,286046995.2,P
1619009395.5,286046993.7,P
1619009415.3,286046992.8,P
1619009435.2,286046990.1,Y
1619009455.0,286046996.2,P
1619009455.9,286046996.2,P
1619009475.8,286046995.1,P
1619009495.6,286046993.4,Y
1619009515.5,286046997.6,P
1619009535.3,286046994.5,P
1619009555.2,286046988.5,P
1619009575.9,286046991.6,N
1619009595.7,286046988.6,Y
1619009615.6,286046996.4,P
1619009635.4,286046992.0,P
1619009655.3,286046993.5,P
1619009675.1,286046993.8,Y
1619009695.8,286046999.1,P
1619009715.7,286046999.2,N
1619009735.5,286046997.0,N
1619009755.4,286046996.5,N
1619009775.2,286046999.4,N
1619009795.1,286046998.6,N
1619009796.0,286046998.6,N
1619009815.8,286046997.6,N
1619009835.6,286046992.7,Y
1619009855.5,286046993.3,P
1619009875.3,286046996.0,N
1619009895.2,286046997.0,N
1619009915.9,286046997.2,N
1619009935.7,286046997.9,N
1619009955.6,286046998.0,N
1619009975.4,286046998.1,N
1619009995.2,286046996.9,N
